Abilene, TX

12:51 PM CDT on October 23, 2017 (GMT -0500)
Abilene Regional

Weather History for KABI - January, 2013

Change the Weather History Date:

Monday, January 7, 2013

  Actual Average Record
Temperature  
Mean Temperature 40 °F 44 °F  
Max Temperature 52 °F 56 °F 78 °F (2006)
Min Temperature 28 °F 33 °F 3 °F (1912)
Degree Days  
Heating Degree Days 25 21  
Month to date heating degree days 192 147  
Since 1 July heating degree days 1027 1192  
Cooling Degree Days 0 0  
Month to date cooling degree days 0 0  
Year to date cooling degree days 0 0  
Moisture  
Dew Point 25 °F    
Average Humidity 54    
Maximum Humidity 70    
Minimum Humidity 38    
Precipitation  
Precipitation 0.00 in 0.03 in 1.92 in (1961)
Month to date precipitation 0.06 0.21  
Year to date precipitation 0.06 0.21  
Sea Level Pressure  
Sea Level Pressure 30.17 in    
Wind  
Wind Speed 8 mph (SE)    
Max Wind Speed 17 mph    
Max Gust Speed 20 mph    
Visibility 10 miles    
Events      
T = Trace of Precipitation, MM = Missing Value Source: NWS Daily Summary

Daily Weather History Graph

Daily Weather History Graph

Search for Another Location

Airport or City:

Trip Planner

Search our weather history database for the weather conditions in past years. The results will help you decide how hot, cold, wet, or windy it might be!

Date:

Astronomy

Jan. 07, 2013 Rise Set
Actual Time 7:41 AM CST 5:49 PM CST
Civil Twilight 7:14 AM CST 6:16 PM CST
Nautical Twilight 6:43 AM CST 6:46 PM CST
Astronomical Twilight 6:14 AM CST 7:16 PM CST
Moon 3:10 AM CST (1/7) 1:59 PM CST (1/7)
Length of Visible Light 11h 02m
Length of Day
10h 08m
Waning Crescent, 22% of the Moon is Illuminated
Jan 7
Waning Crescent
Jan 11
New
Jan 18
First Quarter
Jan 26
Full
Feb 3
Last Quarter

Hourly Weather History & Observations

Time (CST) Temp. Windchill Dew Point Humidity Pressure Visibility Wind Dir Wind Speed Gust Speed Precip Events Conditions
12:52 AM 30.9 °F 25.2 °F 19.9 °F 64% 30.30 in 10.0 mi SSE 5.8 mph - N/A   Clear
1:52 AM 30.9 °F 25.2 °F 19.9 °F 64% 30.28 in 10.0 mi SSE 5.8 mph - N/A   Clear
2:52 AM 30.9 °F 26.2 °F 19.9 °F 64% 30.28 in 10.0 mi South 4.6 mph - N/A   Clear
3:52 AM 32.0 °F 24.8 °F 21.9 °F 66% 30.26 in 10.0 mi SSE 8.1 mph - N/A   Clear
4:52 AM 30.9 °F 23.5 °F 21.0 °F 67% 30.25 in 10.0 mi SSE 8.1 mph - N/A   Clear
5:52 AM 28.0 °F - 19.9 °F 72% 30.26 in 10.0 mi Calm Calm - N/A   Clear
6:52 AM 30.9 °F - 21.0 °F 67% 30.26 in 10.0 mi Calm Calm - N/A   Clear
7:52 AM 35.1 °F 27.9 °F 23.0 °F 61% 30.26 in 10.0 mi SE 9.2 mph - N/A   Clear
8:52 AM 39.0 °F 33.4 °F 24.1 °F 55% 30.28 in 10.0 mi SSE 8.1 mph - N/A   Clear
9:52 AM 43.0 °F 36.8 °F 24.1 °F 47% 30.27 in 10.0 mi SSE 11.5 mph - N/A   Clear
10:52 AM 45.0 °F 38.2 °F 25.0 °F 46% 30.25 in 10.0 mi SSE 15.0 mph - N/A   Clear
11:52 AM 46.0 °F 40.2 °F 25.0 °F 44% 30.22 in 10.0 mi SSE 12.7 mph 18.4 mph N/A   Clear
12:52 PM 46.9 °F - 26.1 °F 44% 30.17 in 10.0 mi SSE 12.7 mph - N/A   Clear
1:52 PM 48.0 °F - 26.1 °F 42% 30.12 in 10.0 mi SSE 12.7 mph - N/A   Clear
2:52 PM 50.0 °F - 27.0 °F 41% 30.10 in 10.0 mi SSE 12.7 mph - N/A   Clear
3:52 PM 52.0 °F - 26.1 °F 37% 30.11 in 10.0 mi SE 9.2 mph - N/A   Clear
4:52 PM 50.0 °F - 27.0 °F 41% 30.09 in 10.0 mi SE 11.5 mph - N/A   Clear
5:52 PM 46.0 °F 41.4 °F 26.1 °F 46% 30.09 in 10.0 mi ESE 9.2 mph - N/A   Clear
6:52 PM 44.1 °F 40.1 °F 27.0 °F 51% 30.08 in 10.0 mi ESE 6.9 mph - N/A   Mostly Cloudy
7:52 PM 44.1 °F 39.0 °F 28.0 °F 53% 30.06 in 10.0 mi SE 9.2 mph - N/A   Clear
8:52 PM 42.1 °F 38.4 °F 28.9 °F 60% 30.07 in 10.0 mi ESE 5.8 mph - N/A   Scattered Clouds
9:52 PM 42.1 °F 38.4 °F 28.9 °F 60% 30.06 in 10.0 mi East 5.8 mph - N/A   Clear
10:52 PM 39.9 °F 35.8 °F 30.0 °F 68% 30.06 in 10.0 mi SSE 5.8 mph - N/A   Clear
11:52 PM 39.0 °F 34.8 °F 28.9 °F 67% 30.05 in 10.0 mi SE 5.8 mph - N/A   Clear